Flag for Turkey Weather past 2 weeks in Samsun, Turkey

Now
75 °F

Passing clouds.


Feels Like: 75 °F
Forecast: 66 / 87 °F
Wind: 2 mph from Southeast

Location: Samsun / Carsamba

Current Time: Jul 29, 2015 at 9:46:17 PM

Latest Report: Jul 29, 2015 at 8:50 PM


Visibility: N/A

Pressure: 29.83 "Hg

Humidity: 83%

Dew point: 70 °F

Location of SamsunLocation

Historic Weather in Samsun — Graph

°F

Samsun temperature yesterday

Maximum temperature yesterday: 84 °F (at 2:50 PM)
Minimum temperature yesterday: 63 °F (at 4:50 AM)
Average temperature yesterday: 76 °F

Past Weeks' High & Low Weather Summary

 TemperatureHumidityPressure
High90 °F (Jul 29, 12:50 PM)100% (Jul 15, 2:50 AM)30.09 "Hg (Jul 15, 2:50 AM)
Low61 °F (Jul 15, 1:50 AM)42% (Jul 19, 12:50 PM)29.68 "Hg (Jul 28, 4:50 AM)
Average73 °F77%29.90 "Hg
* Reported Jul 14 7:50 PM — Jul 29 7:50 PM, Samsun, Weather by CustomWeather, © 2015

Note: Actual official high and low records may vary slightly from our data, if they occured in-between our weather recording intervals... More about our weather records

Advertising

Samsun weather history for previous 24 hours

 ConditionsComfort  
Time TempWeatherWind HumidityBarometerVisibility
7:50 PM
Wed, Jul 29
79 °FPassing clouds.2 mph79%29.83 "HgN/A
6:50 PM82 °FPassing clouds.5 mph62%29.83 "HgN/A
5:50 PM84 °FPassing clouds.7 mph58%29.83 "HgN/A
4:50 PM86 °FPassing clouds.7 mph55%29.83 "HgN/A
3:50 PM86 °FPassing clouds.8 mph55%29.83 "HgN/A
2:50 PM88 °FPassing clouds.7 mph52%29.83 "HgN/A
1:50 PM88 °FPassing clouds.8 mph49%29.83 "HgN/A
12:50 PM90 °FPassing clouds.5 mph46%29.83 "HgN/A
11:50 AM86 °FPassing clouds.7 mph55%29.83 "HgN/A
10:50 AM86 °FPassing clouds.3 mph49%29.86 "HgN/A
9:50 AM86 °FPassing clouds.2 mph52%29.86 "HgN/A
8:50 AM81 °FPassing clouds.2 mph66%29.86 "HgN/A
7:50 AM75 °FPassing clouds.No wind74%29.86 "HgN/A
6:50 AM70 °FPassing clouds.No wind88%29.86 "HgN/A
5:50 AM64 °FPassing clouds.1 mph94%29.83 "HgN/A
4:50 AM64 °FClear.5 mph94%29.83 "Hg10 mi
3:50 AM64 °FClear.2 mph94%29.83 "Hg10 mi
2:50 AM68 °FClear.No wind94%29.83 "Hg10 mi
1:50 AM68 °FClear.6 mph94%29.83 "Hg10 mi
12:50 AM70 °FClear.No wind88%29.83 "Hg10 mi
11:50 PM
Tue, Jul 28
70 °FClear.No wind94%29.83 "Hg10 mi
10:50 PM72 °FClear.No wind94%29.83 "Hg10 mi
9:50 PM72 °FClear.2 mph94%29.83 "Hg10 mi
Weather by CustomWeather, © 2015

See weather overviewHow to use our weather pages